SWA1536 KOAK-KLGB

Flight info

Callsign SWA1536
Flight time 1h 2m
Altitude 35000
Route SKYL1 FLW TANDY6
Aircraft B732/M-VRDW/C

Departure

Time 2026-05-05 22:13
Airport San Francisco Bay Oakland International Airport (KOAK)

Arrival

Time 2026-05-05 23:16
Airport Long Beach International Airport (KLGB)
Time Latitude Longitude Altitude Speed Heading
2026-05-05 21:57 37.71127 -122.21301 17 ft 0 kts 58°
2026-05-05 22:06 37.71120 -122.21315 17 ft 2 kts 58°
2026-05-05 22:06 37.71112 -122.21330 17 ft 0 kts 58°
2026-05-05 22:06 37.71106 -122.21342 17 ft 2 kts 44°
2026-05-05 22:07 37.71093 -122.21353 17 ft 2 kts 25°
2026-05-05 22:07 37.71079 -122.21358 17 ft 2 kts
2026-05-05 22:07 37.71063 -122.21357 16 ft 2 kts 345°
2026-05-05 22:07 37.71054 -122.21352 16 ft 0 kts 334°
2026-05-05 22:08 37.71058 -122.21355 16 ft 1 kts 334°
2026-05-05 22:08 37.71067 -122.21364 16 ft 3 kts 309°
2026-05-05 22:08 37.71070 -122.21391 16 ft 3 kts 251°
2026-05-05 22:08 37.71059 -122.21407 16 ft 1 kts 214°
2026-05-05 22:09 37.71058 -122.21408 16 ft 0 kts 214°
2026-05-05 22:11 37.71048 -122.21416 16 ft 5 kts 218°
2026-05-05 22:11 37.70987 -122.21474 16 ft 16 kts 219°
2026-05-05 22:11 37.70884 -122.21580 16 ft 23 kts 222°
2026-05-05 22:11 37.70744 -122.21732 15 ft 22 kts 221°
2026-05-05 22:12 37.70596 -122.21712 15 ft 26 kts 133°
2026-05-05 22:12 37.70460 -122.21510 15 ft 32 kts 133°
2026-05-05 22:12 37.70275 -122.21360 16 ft 23 kts 174°
2026-05-05 22:12 37.70172 -122.21450 16 ft 11 kts 295°
2026-05-05 22:13 37.70264 -122.21594 15 ft 47 kts 308°
2026-05-05 22:13 37.70636 -122.22163 15 ft 115 kts 310°
2026-05-05 22:13 37.71309 -122.23138 168 ft 158 kts 311°
2026-05-05 22:13 37.71989 -122.24139 999 ft 148 kts 308°
2026-05-05 22:14 37.72755 -122.25185 1324 ft 177 kts 311°
2026-05-05 22:14 37.73696 -122.26541 1446 ft 221 kts 309°
2026-05-05 22:14 37.74762 -122.28123 1938 ft 240 kts 309°
2026-05-05 22:14 37.75863 -122.29786 2589 ft 251 kts 309°
2026-05-05 22:15 37.77018 -122.31550 3381 ft 256 kts 310°
2026-05-05 22:15 37.77923 -122.33555 4151 ft 262 kts 283°
2026-05-05 22:15 37.77840 -122.35873 4914 ft 270 kts 253°
2026-05-05 22:15 37.76761 -122.37900 5685 ft 278 kts 224°
2026-05-05 22:16 37.75191 -122.39411 6427 ft 282 kts 216°
2026-05-05 22:16 37.73505 -122.40798 7110 ft 286 kts 213°
2026-05-05 22:16 37.71787 -122.42173 7848 ft 288 kts 213°
2026-05-05 22:16 37.70041 -122.43579 8510 ft 292 kts 213°
2026-05-05 22:17 37.68303 -122.44994 9162 ft 295 kts 213°
2026-05-05 22:17 37.66536 -122.46453 9815 ft 298 kts 213°
2026-05-05 22:17 37.64616 -122.47562 10453 ft 298 kts 188°
2026-05-05 22:17 37.62551 -122.47390 11065 ft 295 kts 160°
2026-05-05 22:18 37.60710 -122.46040 11275 ft 308 kts 138°
2026-05-05 22:18 37.59108 -122.44091 11690 ft 316 kts 130°
2026-05-05 22:18 37.57639 -122.41916 12170 ft 322 kts 129°
2026-05-05 22:18 37.56121 -122.39700 12651 ft 329 kts 130°
2026-05-05 22:19 37.54513 -122.37515 13166 ft 333 kts 133°
2026-05-05 22:19 37.52823 -122.35390 13730 ft 335 kts 135°
2026-05-05 22:19 37.51110 -122.33318 14295 ft 336 kts 132°
2026-05-05 22:19 37.49484 -122.31100 14837 ft 337 kts 131°
2026-05-05 22:20 37.47813 -122.28895 15341 ft 340 kts 133°
2026-05-05 22:20 37.46082 -122.26768 15815 ft 343 kts 135°
2026-05-05 22:20 37.44279 -122.24689 16279 ft 346 kts 136°
2026-05-05 22:20 37.42405 -122.22627 16741 ft 348 kts 137°
2026-05-05 22:21 37.40498 -122.20586 17192 ft 351 kts 137°
2026-05-05 22:21 37.38591 -122.18563 17626 ft 353 kts 137°
2026-05-05 22:21 37.36683 -122.16531 18041 ft 355 kts 137°
2026-05-05 22:21 37.34765 -122.14462 18451 ft 357 kts 137°
2026-05-05 22:22 37.32829 -122.12339 18851 ft 359 kts 136°
2026-05-05 22:22 37.30920 -122.10208 19233 ft 360 kts 136°
2026-05-05 22:22 37.29022 -122.08061 19603 ft 362 kts 135°
2026-05-05 22:22 37.27122 -122.05890 19965 ft 364 kts 135°
2026-05-05 22:23 37.25194 -122.03677 20324 ft 366 kts 135°
2026-05-05 22:23 37.23253 -122.01444 20672 ft 368 kts 135°
2026-05-05 22:23 37.21325 -121.99232 21006 ft 369 kts 135°
2026-05-05 22:23 37.19376 -121.97001 21322 ft 367 kts 135°
2026-05-05 22:24 37.17429 -121.94781 21425 ft 372 kts 135°
2026-05-05 22:24 37.15476 -121.92557 21776 ft 374 kts 135°
2026-05-05 22:24 37.13505 -121.90322 22098 ft 375 kts 135°
2026-05-05 22:24 37.11512 -121.88068 22416 ft 377 kts 135°
2026-05-05 22:25 37.09513 -121.85815 22695 ft 380 kts 135°
2026-05-05 22:25 37.07500 -121.83551 22969 ft 382 kts 135°
2026-05-05 22:25 37.05464 -121.81261 23233 ft 384 kts 135°
2026-05-05 22:25 37.03417 -121.78962 23493 ft 387 kts 135°
2026-05-05 22:26 37.01366 -121.76658 23745 ft 389 kts 135°
2026-05-05 22:26 36.99308 -121.74358 23982 ft 392 kts 135°
2026-05-05 22:26 36.97158 -121.72086 24235 ft 394 kts 137°
2026-05-05 22:26 36.94973 -121.69839 24476 ft 396 kts 137°
2026-05-05 22:27 36.92780 -121.67612 24732 ft 398 kts 137°
2026-05-05 22:27 36.90579 -121.65394 24963 ft 400 kts 137°
2026-05-05 22:27 36.88547 -121.63352 25180 ft 401 kts 137°
2026-05-05 22:27 36.86300 -121.61095 25418 ft 402 kts 137°
2026-05-05 22:28 36.84061 -121.58843 25607 ft 404 kts 137°
2026-05-05 22:28 36.81830 -121.56598 25829 ft 405 kts 137°
2026-05-05 22:28 36.79578 -121.54332 26065 ft 406 kts 137°
2026-05-05 22:28 36.77329 -121.52065 26268 ft 407 kts 137°
2026-05-05 22:29 36.75055 -121.49771 26457 ft 408 kts 137°
2026-05-05 22:29 36.72797 -121.47493 26677 ft 409 kts 137°
2026-05-05 22:29 36.70599 -121.45278 26853 ft 410 kts 137°
2026-05-05 22:29 36.68344 -121.43008 27030 ft 411 kts 137°
2026-05-05 22:30 36.66074 -121.40725 27215 ft 412 kts 137°
2026-05-05 22:30 36.63777 -121.38415 27389 ft 413 kts 137°
2026-05-05 22:30 36.61482 -121.36108 27543 ft 414 kts 137°
2026-05-05 22:30 36.59177 -121.33794 27708 ft 416 kts 137°
2026-05-05 22:31 36.56866 -121.31482 27898 ft 416 kts 137°
2026-05-05 22:31 36.54549 -121.29165 28041 ft 418 kts 137°
2026-05-05 22:31 36.52233 -121.26849 28199 ft 419 kts 137°
2026-05-05 22:31 36.49892 -121.24509 28356 ft 419 kts 137°
2026-05-05 22:32 36.47574 -121.22195 28526 ft 420 kts 137°
2026-05-05 22:32 36.45233 -121.19859 28689 ft 421 kts 137°
2026-05-05 22:32 36.42883 -121.17516 28851 ft 421 kts 137°
2026-05-05 22:32 36.40564 -121.15198 29010 ft 421 kts 137°
2026-05-05 22:33 36.38213 -121.12842 29181 ft 421 kts 137°
2026-05-05 22:33 36.35872 -121.10497 29337 ft 421 kts 137°
2026-05-05 22:33 36.33557 -121.08186 29475 ft 422 kts 138°
2026-05-05 22:33 36.31199 -121.05837 29608 ft 422 kts 138°
2026-05-05 22:34 36.28866 -121.03519 29743 ft 422 kts 138°
2026-05-05 22:34 36.26516 -121.01190 29865 ft 423 kts 138°
2026-05-05 22:34 36.24150 -120.98844 30000 ft 423 kts 139°
2026-05-05 22:35 36.19456 -120.94206 30215 ft 424 kts 139°
2026-05-05 22:35 36.14693 -120.89533 30390 ft 426 kts 139°
2026-05-05 22:35 36.12297 -120.87191 30556 ft 425 kts 139°
2026-05-05 22:36 36.09954 -120.84898 30831 ft 421 kts 139°
2026-05-05 22:36 36.07623 -120.82611 31031 ft 419 kts 139°
2026-05-05 22:36 36.05273 -120.80305 31116 ft 420 kts 139°
2026-05-05 22:37 36.00589 -120.75697 31251 ft 422 kts 139°
2026-05-05 22:37 35.95892 -120.71060 31383 ft 424 kts 138°
2026-05-05 22:38 35.91160 -120.66406 31541 ft 426 kts 138°
2026-05-05 22:38 35.89268 -120.64556 31713 ft 423 kts 139°
2026-05-05 22:38 35.86903 -120.62246 31901 ft 421 kts 138°
2026-05-05 22:38 35.84534 -120.59934 32020 ft 421 kts 138°
2026-05-05 22:39 35.82186 -120.57640 32097 ft 421 kts 138°
2026-05-05 22:39 35.77488 -120.53047 32283 ft 421 kts 138°
2026-05-05 22:40 35.72799 -120.48473 32445 ft 421 kts 138°
2026-05-05 22:40 35.68084 -120.43881 32537 ft 423 kts 138°
2026-05-05 22:41 35.63368 -120.39300 32920 ft 417 kts 138°
2026-05-05 22:41 35.61037 -120.37045 33175 ft 413 kts 138°
2026-05-05 22:41 35.58738 -120.34823 33270 ft 413 kts 139°
2026-05-05 22:42 35.54100 -120.30337 33351 ft 415 kts 139°
2026-05-05 22:42 35.49403 -120.25777 33461 ft 417 kts 139°
2026-05-05 22:43 35.44744 -120.21263 33568 ft 418 kts 139°
2026-05-05 22:43 35.40056 -120.16743 33686 ft 419 kts 139°
2026-05-05 22:43 35.37718 -120.14496 33867 ft 416 kts 139°
2026-05-05 22:44 35.35419 -120.12292 34063 ft 413 kts 139°
2026-05-05 22:44 35.30776 -120.07838 34214 ft 413 kts 139°
2026-05-05 22:45 35.26145 -120.03384 34277 ft 415 kts 139°
2026-05-05 22:45 35.21499 -119.98921 34371 ft 416 kts 139°
2026-05-05 22:46 35.16839 -119.94460 34499 ft 416 kts 139°
2026-05-05 22:46 35.14533 -119.92243 34694 ft 411 kts 135°
2026-05-05 22:46 35.12686 -119.89522 34797 ft 403 kts 121°
2026-05-05 22:46 35.10755 -119.86919 34812 ft 409 kts 141°
2026-05-05 22:47 35.08148 -119.85310 35028 ft 412 kts 158°
2026-05-05 22:47 35.05454 -119.84063 35041 ft 406 kts 146°
2026-05-05 22:47 35.03279 -119.81816 35041 ft 396 kts 125°
2026-05-05 22:47 35.01924 -119.78845 35043 ft 392 kts 112°
2026-05-05 22:48 35.00354 -119.76057 35037 ft 395 kts 134°
2026-05-05 22:48 34.98045 -119.74036 35042 ft 399 kts 146°
2026-05-05 22:48 34.95659 -119.72245 35036 ft 399 kts 146°
2026-05-05 22:49 34.91050 -119.68222 35029 ft 399 kts 136°
2026-05-05 22:49 34.87297 -119.63448 35016 ft 399 kts 133°
2026-05-05 22:50 34.83249 -119.58583 35005 ft 397 kts 137°
2026-05-05 22:50 34.79016 -119.54060 35000 ft 395 kts 139°
2026-05-05 22:51 34.74749 -119.49674 34999 ft 393 kts 140°
2026-05-05 22:51 34.70473 -119.45355 35008 ft 391 kts 140°
2026-05-05 22:52 34.66179 -119.41029 35015 ft 389 kts 140°
2026-05-05 22:52 34.61947 -119.36740 35022 ft 387 kts 139°
2026-05-05 22:53 34.57759 -119.32420 35028 ft 385 kts 139°
2026-05-05 22:53 34.53618 -119.28069 35036 ft 384 kts 139°
2026-05-05 22:54 34.49517 -119.23728 35035 ft 384 kts 139°
2026-05-05 22:54 34.45413 -119.19382 35033 ft 383 kts 139°
2026-05-05 22:55 34.41296 -119.15027 35031 ft 383 kts 139°
2026-05-05 22:55 34.37197 -119.10712 35029 ft 383 kts 139°
2026-05-05 22:56 34.33054 -119.06387 35030 ft 384 kts 139°
2026-05-05 22:56 34.28898 -119.02074 34248 ft 397 kts 140°
2026-05-05 22:56 34.26700 -118.99792 33302 ft 416 kts 140°
2026-05-05 22:57 34.24480 -118.97488 33170 ft 412 kts 140°
2026-05-05 22:57 34.22269 -118.95188 33018 ft 403 kts 140°
2026-05-05 22:57 34.20090 -118.92922 32267 ft 406 kts 140°
2026-05-05 22:57 34.17908 -118.90653 31439 ft 412 kts 140°
2026-05-05 22:58 34.15785 -118.88454 30693 ft 416 kts 141°
2026-05-05 22:58 34.13528 -118.86126 29869 ft 422 kts 141°
2026-05-05 22:58 34.11258 -118.83790 29267 ft 421 kts 141°
2026-05-05 22:58 34.08982 -118.81455 28812 ft 417 kts 141°
2026-05-05 22:59 34.06730 -118.79146 28422 ft 411 kts 141°
2026-05-05 22:59 34.04522 -118.76870 28044 ft 406 kts 141°
2026-05-05 22:59 34.02355 -118.74590 27574 ft 403 kts 140°
2026-05-05 22:59 34.00033 -118.72661 27102 ft 397 kts 157°
2026-05-05 23:00 33.94558 -118.71458 26148 ft 390 kts 173°
2026-05-05 23:00 33.91823 -118.71041 25683 ft 387 kts 172°
2026-05-05 23:00 33.89320 -118.70612 25251 ft 385 kts 171°
2026-05-05 23:01 33.86625 -118.70097 24805 ft 382 kts 169°
2026-05-05 23:01 33.83935 -118.69499 24345 ft 379 kts 168°
2026-05-05 23:01 33.81305 -118.68828 23856 ft 376 kts 166°
2026-05-05 23:01 33.78711 -118.68079 23340 ft 373 kts 165°
2026-05-05 23:02 33.76159 -118.67261 22821 ft 371 kts 163°
2026-05-05 23:02 33.73643 -118.66385 22323 ft 368 kts 162°
2026-05-05 23:02 33.71159 -118.65457 21712 ft 363 kts 161°
2026-05-05 23:02 33.68718 -118.64494 21035 ft 359 kts 160°
2026-05-05 23:03 33.66295 -118.63497 20326 ft 356 kts 160°
2026-05-05 23:03 33.63938 -118.62498 19642 ft 353 kts 159°
2026-05-05 23:03 33.61573 -118.61478 18963 ft 349 kts 159°
2026-05-05 23:03 33.59261 -118.60474 18354 ft 346 kts 158°
2026-05-05 23:04 33.56963 -118.59476 17880 ft 344 kts 158°
2026-05-05 23:04 33.54653 -118.58478 17415 ft 341 kts 158°
2026-05-05 23:04 33.52388 -118.57510 16954 ft 338 kts 159°
2026-05-05 23:04 33.50119 -118.56560 16482 ft 336 kts 159°
2026-05-05 23:05 33.47877 -118.55640 16008 ft 334 kts 159°
2026-05-05 23:05 33.45612 -118.54736 15529 ft 332 kts 159°
2026-05-05 23:05 33.43384 -118.53856 15065 ft 330 kts 159°
2026-05-05 23:05 33.41282 -118.52747 14474 ft 320 kts 143°
2026-05-05 23:06 33.39783 -118.50754 13527 ft 316 kts 117°
2026-05-05 23:06 33.39210 -118.48299 12603 ft 316 kts 93°
2026-05-05 23:06 33.39637 -118.45667 11659 ft 318 kts 68°
2026-05-05 23:06 33.41019 -118.43566 10906 ft 320 kts 40°
2026-05-05 23:07 33.43068 -118.42450 10461 ft 313 kts 18°
2026-05-05 23:07 33.45175 -118.41765 9872 ft 306 kts 20°
2026-05-05 23:07 33.47175 -118.40838 9281 ft 299 kts 27°
2026-05-05 23:07 33.49058 -118.39645 8652 ft 295 kts 34°
2026-05-05 23:08 33.50800 -118.38268 8027 ft 291 kts 39°
2026-05-05 23:08 33.52411 -118.36764 7387 ft 290 kts 41°
2026-05-05 23:08 33.53981 -118.35149 6749 ft 288 kts 44°
2026-05-05 23:08 33.55483 -118.33459 6127 ft 286 kts 46°
2026-05-05 23:09 33.56911 -118.31728 5539 ft 283 kts 48°
2026-05-05 23:09 33.58286 -118.29965 5076 ft 284 kts 49°
2026-05-05 23:09 33.59652 -118.28164 4798 ft 281 kts 49°
2026-05-05 23:09 33.60986 -118.26395 4535 ft 278 kts 49°
2026-05-05 23:10 33.62371 -118.24673 4230 ft 278 kts 40°
2026-05-05 23:10 33.64091 -118.23522 4121 ft 283 kts 19°
2026-05-05 23:10 33.66073 -118.22900 3884 ft 289 kts 11°
2026-05-05 23:10 33.68058 -118.22423 3959 ft 275 kts 10°
2026-05-05 23:11 33.70002 -118.22114 3814 ft 266 kts
2026-05-05 23:11 33.71829 -118.22266 3735 ft 255 kts 349°
2026-05-05 23:11 33.73607 -118.22680 3593 ft 252 kts 345°
2026-05-05 23:11 33.75364 -118.23154 3538 ft 255 kts 345°
2026-05-05 23:12 33.77183 -118.23583 3347 ft 263 kts 348°
2026-05-05 23:12 33.79055 -118.23917 3226 ft 268 kts 352°
2026-05-05 23:12 33.80907 -118.24197 3168 ft 254 kts 350°
2026-05-05 23:12 33.82613 -118.24496 3072 ft 236 kts 348°
2026-05-05 23:13 33.84214 -118.24740 3058 ft 213 kts 358°
2026-05-05 23:13 33.85591 -118.24335 2935 ft 192 kts 32°
2026-05-05 23:13 33.86514 -118.23184 2534 ft 183 kts 64°
2026-05-05 23:13 33.86843 -118.21793 2188 ft 161 kts 93°
2026-05-05 23:14 33.86617 -118.20534 1753 ft 147 kts 127°
2026-05-05 23:14 33.85897 -118.19682 1146 ft 145 kts 147°
2026-05-05 23:14 33.85079 -118.18954 728 ft 142 kts 147°
2026-05-05 23:14 33.84314 -118.18135 606 ft 146 kts 141°
2026-05-05 23:15 33.83543 -118.17270 480 ft 146 kts 139°
2026-05-05 23:15 33.82805 -118.16393 288 ft 145 kts 140°
2026-05-05 23:15 33.82137 -118.15573 58 ft 130 kts 137°
2026-05-05 23:15 33.81562 -118.14883 44 ft 95 kts 131°
2026-05-05 23:16 33.81201 -118.14418 38 ft 35 kts 129°
2026-05-05 23:16 33.81236 -118.14342 37 ft 21 kts
2026-05-05 23:16 33.81354 -118.14432 39 ft 21 kts 315°
2026-05-05 23:16 33.81483 -118.14585 41 ft 28 kts 309°
2026-05-05 23:17 33.81611 -118.14703 42 ft 16 kts 358°
2026-05-05 23:17 33.81722 -118.14698 43 ft 11 kts 14°
2026-05-05 23:17 33.81741 -118.14619 42 ft 10 kts 91°
2026-05-05 23:17 33.81741 -118.14608 42 ft 0 kts 91°